Location: Gugi
(45.4667°N, 11.1000°E)
Time: 04:56:14
(UTC+00:00)

Cosmos 2056 Rocket - Pass Details

Date: 17 November 2019
Orbit: 742 x 800 km, 74.0° (Epoch: 12 December)

Event Time Altitude Azimuth Distance (km) Brightness Sun altitude
Rises 18:01:03 0° 337° (NNW) 3,196 7.0 -23.9°
Reaches altitude 10° 18:03:24 10° 335° (NNW) 2,271 6.2 -24.3°
Maximum altitude 18:08:32 74° 252° (WSW) 783 3.6 -25.2°
Enters shadow 18:11:24 27° 171° (S) 1,430 4.8 -25.7°
